Theta_e
333 331 338 345 351 355 353 354 354 354 354 354 353 353 352 352 352 352 351 350 350 350 349 349 348 348 347 348 347 348 348 348 348 347 347 348 347 347 350 351 351 351 351 350 349 348 347 346 345 345 345 344 344 344 344 344 344 344 344 346 347 347 346 346 346 346 346 348 351 351 350 350 350 350 351 350 350 349 349 349 348 347 347 349 352
333 332 339 341 350 354 354 354 354 354 354 353 353 353 352 352 352 351 351 350 350 350 349 348 348 348 347 347 347 348 348 348 349 348 347 347 347 347 348 349 349 350 349 349 348 348 347 346 346 345 345 344 343 342 342 341 341 340 341 342 343 343 343 342 342 343 344 346 347 348 348 348 348 348 348 348 349 350 349 349 349 345 344 350 352
329 332 339 341 348 353 354 354 354 354 354 354 353 353 352 352 352 351 350 350 350 349 349 348 348 348 347 347 347 347 348 348 348 348 348 348 348 347 348 347 348 349 348 349 349 349 348 347 346 345 344 343 342 341 340 339 338 337 338 338 339 340 339 339 339 340 342 344 345 344 343 346 346 346 346 348 348 349 348 348 348 347 346 350 350
331 334 339 342 345 349 353 354 354 354 354 354 353 353 352 352 352 351 350 349 349 349 348 348 348 347 347 346 347 347 347 347 348 347 348 348 348 347 347 348 349 349 348 349 349 348 347 346 345 343 342 341 340 339 338 336 334 334 335 336 337 336 337 337 339 340 341 341 343 341 339 335 339 345 346 346 347 348 348 347 347 347 348 349 348
331 335 340 341 344 347 352 353 354 355 354 354 353 353 352 352 352 351 350 349 349 349 348 347 348 347 347 346 347 347 348 348 348 347 347 348 348 347 347 347 348 348 348 348 347 347 346 345 344 343 340 339 338 338 337 335 333 331 332 333 334 334 335 336 339 339 339 340 342 339 335 337 338 345 344 345 346 346 347 347 347 347 347 347 347
332 336 340 341 343 344 349 352 354 355 354 354 353 353 352 352 352 350 349 349 349 349 348 347 347 347 346 347 347 347 347 347 347 347 347 347 347 347 347 347 348 348 347 347 345 346 346 345 344 342 340 338 336 335 335 333 331 330 330 331 332 334 334 337 339 338 338 339 340 335 335 336 337 340 345 344 345 345 346 345 346 346 346 346 346
332 336 339 341 343 343 347 351 354 355 354 354 353 353 353 352 351 350 350 349 348 348 348 347 348 346 346 346 347 347 347 347 347 347 346 345 346 345 346 346 348 347 347 347 346 346 345 344 343 341 339 337 335 334 333 332 329 329 329 331 332 333 336 338 337 337 335 332 333 333 337 337 337 338 345 345 345 345 345 345 345 344 344 344 344
330 335 339 341 342 343 345 350 353 354 354 354 354 353 352 351 351 350 350 349 348 347 348 347 347 346 345 346 347 347 347 347 347 347 345 346 346 345 345 347 347 347 346 346 345 344 343 342 341 340 338 336 334 332 331 330 329 329 330 331 332 335 338 337 336 337 336 330 332 335 337 335 334 335 344 343 345 345 345 345 344 343 343 343 342
331 334 338 340 340 342 344 347 353 354 354 353 353 353 352 351 351 350 349 348 348 347 347 347 347 347 345 346 347 347 347 347 347 347 345 345 345 345 345 346 346 346 345 345 344 343 342 340 340 338 337 334 332 330 329 328 328 331 332 333 335 337 337 336 335 334 331 331 333 333 335 335 333 334 343 345 344 344 345 344 344 342 342 341 341
330 332 336 339 340 341 344 346 352 353 354 354 353 353 352 351 351 350 349 348 348 347 346 346 347 347 347 347 347 347 348 348 347 346 345 345 345 345 346 346 345 345 345 343 342 341 340 339 338 337 336 333 330 328 327 327 329 332 333 334 336 337 336 334 334 333 331 334 336 337 339 340 332 331 340 343 343 344 343 341 342 341 341 341 341
329 332 335 337 338 341 344 348 350 351 353 353 353 353 352 351 350 350 349 348 348 346 345 346 347 347 347 347 347 348 348 348 347 346 345 345 345 345 345 346 345 344 342 342 341 340 339 338 337 337 334 332 329 327 326 326 330 331 332 335 336 336 334 331 328 325 330 331 333 334 338 341 330 332 342 344 343 343 342 342 342 342 342 342 341
330 330 333 335 337 339 343 346 348 351 352 352 353 352 352 351 351 349 348 348 348 346 346 346 347 347 346 348 347 347 348 347 347 346 345 345 345 344 345 345 344 342 341 340 338 339 337 337 337 337 333 331 328 325 324 325 328 330 331 334 334 333 330 328 321 324 326 327 330 329 326 327 329 338 343 344 343 343 342 342 342 343 342 342 341
331 330 331 332 334 338 341 346 346 349 351 352 353 352 352 351 351 349 349 348 347 346 346 346 347 347 347 347 347 347 348 347 348 346 345 345 344 344 344 344 343 342 341 341 340 338 338 335 338 336 333 331 327 324 323 324 326 329 330 333 333 331 328 324 317 322 324 324 323 320 321 323 324 343 341 343 343 342 342 342 341 341 341 340 340
332 333 331 333 333 335 337 340 343 347 349 350 352 352 352 351 351 350 349 349 348 347 346 347 347 347 347 347 348 348 349 347 346 346 345 345 344 345 344 343 342 341 341 339 338 337 340 340 337 335 332 329 326 323 323 323 325 328 330 332 332 329 325 322 321 317 321 321 322 319 319 323 323 340 338 338 338 338 338 338 338 338 338 338 338
331 331 330 331 332 334 334 337 340 342 346 348 350 351 351 351 351 350 349 349 348 348 347 347 348 347 347 347 347 348 349 347 347 345 345 344 345 345 343 343 341 341 340 338 337 336 337 338 337 334 331 328 325 323 322 323 324 327 330 330 329 326 322 313 314 313 316 317 316 318 318 320 338 336 336 336 336 336 335 336 336 337 337 336 336
325 326 326 330 330 331 334 335 336 336 341 344 346 347 349 350 349 349 349 349 348 347 348 348 348 348 348 348 347 348 347 346 346 345 345 344 344 344 343 342 341 340 339 338 336 335 335 337 335 331 329 326 323 321 320 320 323 326 328 328 326 324 320 316 313 312 313 315 316 317 318 321 338 334 333 333 334 334 334 333 334 334 335 335 334
321 323 329 330 328 330 333 335 335 333 334 335 339 341 344 347 347 348 347 347 347 347 348 348 348 348 348 348 348 347 346 347 346 345 344 344 344 343 344 342 341 340 339 338 336 335 333 336 333 331 328 326 324 322 319 320 322 325 326 326 325 322 319 315 312 309 312 315 314 316 318 321 335 333 333 333 332 331 331 331 331 332 333 332 332
319 323 328 329 329 329 332 334 336 336 337 334 333 337 341 344 345 345 345 345 345 346 346 346 346 346 345 344 343 342 343 344 345 344 343 344 343 341 342 342 341 340 337 336 334 336 337 334 332 330 328 326 323 320 319 319 321 322 325 326 324 322 319 316 309 308 313 317 313 315 318 331 334 332 331 331 331 331 330 330 330 331 331 330 329
317 320 324 325 329 329 332 334 336 339 338 337 336 337 334 339 341 341 342 342 343 343 343 342 341 342 342 341 339 337 337 338 339 341 341 340 338 334 339 342 340 338 335 332 333 336 335 333 332 330 328 326 323 319 318 319 320 321 323 322 319 316 315 311 306 308 310 313 312 314 317 332 331 332 331 330 330 330 329 330 329 328 326 328 329
315 321 324 323 325 328 331 335 338 340 340 340 339 339 334 331 335 338 339 340 340 341 340 337 335 336 337 336 333 331 331 335 331 336 334 339 335 331 335 337 339 336 333 332 333 336 335 333 331 330 328 325 323 318 317 317 318 320 320 319 315 312 305 304 304 306 307 311 314 312 325 331 330 331 331 330 330 329 328 327 327 327 327 326 321
315 319 323 327 326 327 330 334 336 338 340 340 340 340 339 329 331 331 333 336 336 336 337 333 329 328 329 328 326 332 334 336 333 336 328 335 327 326 331 336 339 339 337 336 336 335 334 333 331 329 327 325 320 318 318 317 317 317 317 314 310 303 302 303 304 306 306 308 311 310 329 330 328 330 329 329 327 326 327 328 327 324 325 327 327
313 314 316 323 328 330 330 332 334 336 339 340 341 341 339 334 337 337 336 336 332 331 333 334 328 329 324 328 330 330 333 334 335 332 333 332 327 323 328 334 338 334 335 336 336 334 333 332 331 329 327 322 316 299 297 305 312 313 312 308 299 298 299 301 301 302 304 307 309 316 329 327 327 327 327 326 327 327 325 327 327 327 326 325 326
312 314 315 317 325 330 332 332 333 335 337 338 339 340 340 339 338 339 338 332 335 332 337 332 330 331 332 333 330 330 332 333 334 333 332 325 329 322 327 331 334 331 333 334 335 334 333 332 331 328 323 314 299 293 289 288 289 303 301 296 295 296 297 298 298 299 302 306 305 318 329 327 325 326 327 326 326 326 327 326 325 324 325 325 325
306 309 313 314 318 326 331 333 333 334 335 337 338 339 338 338 339 339 339 338 339 337 337 336 334 333 334 333 331 332 333 333 328 324 326 328 327 320 324 327 329 326 328 329 331 333 333 332 329 324 312 301 295 293 289 288 289 291 292 292 293 295 296 296 296 296 298 304 304 318 326 330 327 325 326 327 327 326 326 326 325 326 325 325 325
300 303 307 310 314 319 327 331 333 333 334 336 336 337 338 338 338 339 339 338 337 337 339 335 335 336 335 334 333 332 332 331 329 327 327 326 324 324 324 326 324 323 322 321 320 321 317 313 311 306 299 299 294 291 288 288 289 291 291 291 293 293 295 295 295 295 293 296 302 318 322 326 329 329 328 326 326 326 326 326 326 324 324 324 324
298 299 300 303 308 314 319 327 331 333 334 335 336 337 337 337 336 337 338 337 338 337 333 334 337 336 335 335 332 331 331 329 327 325 325 325 323 322 322 321 320 319 318 318 315 314 312 309 307 303 297 295 292 290 292 291 288 288 291 291 291 292 292 294 294 295 295 294 298 315 320 322 327 329 329 328 326 325 326 326 325 325 325 324 325
297 298 299 300 302 304 311 319 328 331 332 334 335 335 336 336 336 336 336 336 336 334 337 337 332 333 336 335 334 331 329 328 326 324 324 323 323 321 321 320 321 319 316 318 315 312 312 309 305 302 296 295 293 291 290 289 288 289 290 291 291 291 292 292 292 293 294 293 297 309 316 320 325 328 330 329 327 325 325 326 325 325 324 324 324
297 299 300 301 302 303 305 311 322 328 331 333 334 334 334 335 335 334 335 331 333 337 337 337 337 335 332 329 331 332 331 328 326 324 323 320 322 322 320 319 319 316 315 317 315 311 310 307 305 298 298 295 295 293 291 290 289 289 291 290 290 290 289 290 291 292 292 292 295 301 311 318 321 325 328 329 328 326 326 326 326 326 324 325 325
297 298 300 301 303 305 306 308 315 323 329 331 332 333 333 334 333 334 334 331 333 332 332 332 330 328 329 331 331 329 328 326 326 326 322 320 319 318 318 319 318 316 316 314 315 312 310 307 304 302 297 297 295 295 294 292 289 289 290 290 290 290 289 290 291 291 292 292 293 297 310 317 320 323 326 327 329 327 327 327 326 327 326 324 324
297 298 300 301 303 306 308 310 315 320 325 329 330 330 331 331 331 332 332 333 333 332 329 329 330 330 329 328 327 329 327 326 324 321 320 319 318 316 317 316 316 315 316 315 312 313 311 305 302 302 300 297 296 295 295 294 292 291 290 291 290 290 289 290 290 292 291 293 293 297 305 312 317 321 324 326 327 329 328 327 326 326 327 326 325
297 298 299 301 304 309 312 311 313 314 319 325 327 328 328 329 330 330 330 331 330 330 330 330 327 327 326 325 325 324 327 328 326 323 321 320 319 317 317 315 315 315 315 316 311 313 310 309 307 304 302 299 298 294 294 293 291 291 291 291 291 290 290 289 291 291 292 293 293 293 297 306 313 318 321 323 325 326 328 328 328 327 327 327 326
296 297 299 301 304 308 312 313 315 316 319 321 321 325 325 325 326 329 329 330 329 330 329 328 324 325 323 323 324 324 323 323 323 323 321 319 319 316 315 316 317 315 313 313 312 309 309 305 303 302 300 298 296 293 292 293 291 290 288 290 289 290 290 290 290 291 292 294 294 294 295 299 304 312 317 321 324 325 326 327 328 328 328 328 328
296 297 298 300 301 305 311 312 314 316 320 320 321 321 322 322 323 324 326 326 328 329 328 325 326 324 325 325 324 324 321 322 322 322 317 319 317 316 315 315 317 316 313 312 310 308 307 305 302 299 298 297 295 294 293 291 292 290 288 290 289 289 289 289 291 291 293 294 293 293 295 296 297 304 310 315 321 324 325 325 326 327 328 327 327
295 296 298 299 300 302 307 310 312 312 313 317 317 318 318 318 319 320 320 322 323 325 324 326 325 325 326 325 324 323 321 322 320 319 318 317 316 315 314 313 315 313 312 311 311 308 308 305 301 301 301 299 298 297 294 294 292 289 289 289 288 288 288 289 289 290 290 293 293 293 294 294 295 298 300 307 313 318 323 325 326 326 327 327 327
294 295 296 297 299 300 302 306 309 312 313 313 315 316 317 317 318 318 318 319 319 319 319 319 320 320 321 320 320 320 320 319 317 317 316 316 316 315 315 317 312 309 310 309 311 307 308 307 303 304 298 298 297 296 294 294 293 294 291 290 290 288 287 289 288 289 289 291 292 292 294 294 294 296 298 297 302 306 313 320 324 325 325 325 326
293 293 295 297 297 298 300 302 306 310 313 314 315 315 316 315 315 313 315 315 315 314 314 315 315 316 316 316 317 317 318 318 317 316 316 315 314 313 312 310 309 310 310 308 309 309 307 306 304 307 304 301 296 298 292 293 291 292 290 289 288 289 288 287 288 288 289 288 291 292 293 294 294 294 299 297 298 299 307 313 318 322 322 322 324
292 293 293 295 296 296 298 299 301 305 310 312 313 313 313 313 312 312 311 311 311 310 310 311 311 311 312 312 313 313 314 315 315 316 316 315 314 313 311 309 308 310 309 308 309 309 308 307 303 303 307 306 299 297 294 291 291 290 288 288 288 288 288 288 288 288 289 288 288 289 290 293 293 299 295 295 296 296 300 307 313 316 315 317 319
292 292 293 293 294 295 296 297 299 302 306 308 309 310 310 309 308 308 307 306 306 305 305 305 305 306 307 307 308 308 310 311 312 312 313 312 312 311 310 310 309 309 309 308 308 305 306 306 305 300 300 302 300 299 300 295 291 291 289 288 288 287 287 287 288 291 289 289 288 288 291 291 292 294 294 295 294 295 295 300 306 309 308 311 316
291 291 292 292 293 294 295 295 297 299 302 304 306 306 306 306 305 303 302 302 301 301 300 299 299 300 302 303 303 304 305 307 309 310 309 310 309 309 308 308 308 308 308 307 305 304 304 303 304 302 296 295 297 297 297 295 293 291 289 289 287 287 287 287 288 288 287 288 288 291 289 291 291 293 294 293 292 292 294 295 295 296 297 305 312
290 290 291 291 291 292 293 294 294 297 300 300 302 303 302 301 300 300 298 298 298 297 297 296 296 295 297 298 299 299 300 301 303 305 307 306 306 306 306 306 306 307 306 305 305 304 303 302 302 301 300 298 294 292 292 292 291 291 291 290 287 287 287 288 287 287 288 288 289 287 289 290 290 292 292 293 293 292 293 293 293 294 295 298 306
289 289 289 290 290 290 291 291 292 294 296 297 297 298 299 297 296 295 295 295 295 295 294 295 294 294 294 294 295 295 295 296 298 299 300 302 303 303 304 304 306 305 304 303 303 302 302 302 301 299 299 297 295 292 292 293 292 293 291 289 288 287 289 289 288 288 288 288 287 288 288 289 289 289 291 291 291 292 291 292 293 293 294 291 295
287 287 287 288 289 289 289 290 291 292 293 294 294 294 294 294 294 293 293 293 292 291 291 291 292 292 292 292 292 293 293 293 294 296 296 298 299 301 301 301 302 303 303 303 302 300 300 298 297 296 295 296 296 292 293 294 292 290 290 289 288 289 286 287 287 288 288 287 287 288 288 288 289 289 287 287 290 291 291 291 290 292 292 292 293
285 286 286 287 288 288 288 289 289 290 291 292 293 293 293 293 292 291 291 290 291 290 290 290 290 289 289 290 290 290 291 291 292 293 293 294 295 296 296 298 298 299 300 300 300 300 300 299 299 299 298 295 293 293 293 294 293 289 289 289 288 286 290 286 285 286 288 288 287 287 288 287 288 288 286 286 288 289 289 289 289 290 291 291 291
285 285 285 286 287 287 287 288 288 289 289 290 292 291 292 292 291 291 290 290 289 289 289 288 288 287 286 287 287 287 288 288 289 290 290 290 291 292 293 294 295 296 297 297 296 296 297 297 298 297 297 296 295 294 293 293 292 294 292 289 286 285 289 289 282 285 283 285 286 287 286 288 288 287 286 287 288 287 288 287 288 289 289 289 289
284 284 284 285 286 286 286 287 287 288 288 289 289 290 290 290 290 289 289 287 287 286 286 285 285 286 285 285 285 286 286 286 287 287 288 288 288 289 290 290 291 292 293 294 294 294 295 295 295 294 293 293 293 294 293 293 292 294 294 289 289 288 287 286 286 292 284 287 285 285 287 287 287 287 286 287 287 287 287 286 287 287 287 288 288
283 283 284 284 284 285 286 286 287 287 287 287 288 288 288 287 287 286 284 283 282 283 282 282 282 283 283 284 284 285 285 285 285 285 286 287 287 287 288 288 288 289 290 290 290 291 292 293 294 294 294 293 291 290 291 293 292 293 292 291 292 290 287 288 288 287 286 285 285 284 284 285 285 286 287 287 287 288 288 287 287 287 287 287 287
282 283 283 283 284 284 285 285 285 286 286 286 287 287 286 285 285 284 283 282 281 282 282 282 282 282 283 283 283 284 284 284 284 284 284 285 285 285 286 286 287 287 288 288 288 289 289 290 291 292 292 293 292 289 290 291 292 292 293 292 291 289 288 287 286 286 285 287 283 283 287 284 284 285 286 287 288 287 288 287 287 287 287 287 287
281 282 283 283 283 283 283 284 284 285 285 285 285 286 284 284 283 283 283 282 281 281 281 282 282 283 282 282 282 283 283 283 283 284 284 284 284 284 284 284 285 285 286 286 287 288 288 289 290 290 290 291 291 290 290 291 289 290 291 290 290 290 289 288 288 286 285 283 286 286 285 285 284 285 286 287 287 287 287 287 287 287 287 287 287
282 282 282 282 282 282 283 283 283 283 283 284 284 284 284 283 282 282 282 282 282 282 282 283 282 282 282 282 282 282 282 283 283 283 283 283 284 283 283 283 283 284 284 284 285 286 287 287 288 288 288 289 289 289 289 289 290 290 289 289 290 289 289 288 287 287 285 284 285 287 287 285 284 284 285 286 287 287 288 288 288 288 288 288 287
281 282 281 281 281 282 282 282 281 282 282 282 283 282 282 283 282 281 281 280 281 281 281 281 281 281 281 281 281 281 282 282 282 282 282 283 283 283 283 282 282 283 284 283 284 284 285 286 287 287 288 287 288 288 288 288 289 289 289 289 288 287 287 287 287 286 285 285 284 285 286 286 285 287 286 286 287 287 287 287 287 287 287 287 287
280 280 281 281 280 281 281 281 281 281 282 282 282 282 282 282 281 281 281 280 280 281 281 280 281 281 280 280 280 281 281 281 281 282 282 282 282 282 282 282 282 283 282 282 282 283 284 284 285 286 286 287 287 287 287 287 287 287 287 287 287 288 287 286 286 286 286 285 285 285 286 287 287 286 287 287 287 287 287 286 286 287 287 288 288
Wind_Speed
8 5 5 9 10 11 13 13 13 13 13 13 13 13 12 11 11 11 10 10 9 9 9 9 8 8 8 9 9 9 10 10 10 9 8 8 7 8 8 8 8 8 10 12 13 12 12 12 13 13 13 13 13 13 13 13 13 13 13 14 14 14 13 13 13 13 12 13 13 12 12 10 12 12 12 12 12 12 12 11 10 7 6 8 13
9 8 6 6 10 11 13 13 13 13 14 14 13 13 12 11 10 10 10 10 9 9 9 9 8 7 8 8 9 9 9 9 9 9 9 7 8 7 7 6 8 7 9 10 13 13 13 13 13 13 13 13 13 13 13 13 13 13 13 13 13 12 12 12 12 12 12 11 11 11 11 12 11 11 11 12 12 12 11 11 12 7 4 11 13
3 6 6 7 10 10 12 13 13 13 13 14 14 13 12 11 11 10 9 10 9 9 9 9 9 7 7 8 8 9 9 8 8 8 8 9 8 7 7 6 7 8 8 11 12 14 14 14 14 14 13 13 13 13 13 13 13 13 13 13 12 11 11 11 11 11 10 10 10 10 10 10 10 9 11 11 12 12 10 12 11 10 7 14 12
8 8 6 8 10 10 12 12 12 12 12 12 12 12 12 11 11 10 10 9 9 9 9 9 9 8 7 8 9 8 8 8 8 8 8 8 8 8 7 6 7 7 9 11 13 14 14 14 13 13 13 13 12 13 12 12 12 12 12 11 11 10 10 10 10 9 8 8 9 8 4 4 4 8 9 10 11 12 10 13 13 13 14 14 14
8 7 7 7 7 8 12 11 12 12 13 12 12 12 12 12 11 11 10 9 9 9 9 9 9 9 8 8 8 9 9 8 8 8 8 7 7 7 6 5 6 9 10 10 11 12 13 13 13 13 13 12 12 12 12 11 11 11 10 10 9 8 9 9 9 8 6 6 7 6 4 4 5 7 8 9 10 10 9 11 13 13 14 15 15
7 7 7 7 7 6 11 10 12 13 13 13 13 12 12 12 11 10 9 9 9 9 8 8 8 9 8 8 8 8 8 8 7 7 7 7 6 6 5 5 7 9 9 10 8 11 11 12 12 11 12 11 11 11 11 11 10 10 9 8 7 8 8 8 8 8 5 6 6 4 4 4 4 3 7 9 11 11 11 13 13 13 14 15 15
7 6 7 7 7 7 11 11 12 11 14 13 13 13 13 12 11 10 9 9 9 8 8 8 8 8 8 8 8 8 7 7 7 7 6 5 5 4 4 6 8 9 9 9 9 11 10 9 11 11 10 10 11 11 11 10 10 9 8 7 7 6 7 7 7 8 6 5 3 3 4 4 4 3 7 7 8 10 11 12 13 13 13 14 14
4 5 6 6 6 8 11 11 12 12 14 13 11 12 13 12 11 11 10 9 9 8 9 8 8 8 7 8 8 7 7 7 7 7 6 6 4 4 4 6 8 9 9 9 9 9 10 9 10 11 10 10 10 10 10 10 9 8 7 6 6 6 7 7 7 7 7 4 3 4 4 4 3 3 6 7 9 9 10 11 12 12 13 13 11
6 5 5 6 5 9 10 10 12 12 14 13 11 11 12 13 11 11 10 10 9 8 9 9 9 9 9 8 8 8 7 7 8 7 6 5 4 4 5 6 7 8 8 7 8 8 8 7 10 10 9 9 10 10 10 10 8 8 7 6 6 7 8 8 8 8 5 3 3 4 4 3 3 3 5 7 9 10 12 9 9 11 12 11 10
4 4 5 5 5 10 10 10 12 12 14 13 11 11 12 12 12 12 11 10 9 9 9 9 9 9 10 10 9 8 8 8 8 7 7 5 4 5 6 6 6 7 7 7 7 8 6 7 8 9 9 9 9 9 9 9 8 8 7 7 7 7 8 8 9 7 4 4 4 4 3 4 2 2 4 8 9 11 10 7 6 5 6 9 9
5 5 4 4 5 9 11 12 11 11 13 13 12 12 13 13 13 12 12 11 10 10 9 9 10 9 9 10 9 8 8 8 8 8 8 7 4 5 5 6 6 5 4 4 4 4 7 6 8 9 9 8 8 8 8 8 7 7 8 8 8 8 9 8 7 4 4 4 4 3 3 4 3 1 7 8 9 10 10 8 7 9 10 10 10
4 4 4 4 6 9 10 11 11 11 11 11 12 12 14 14 13 13 12 11 11 10 10 10 10 10 10 9 9 8 8 7 7 8 8 8 7 5 5 6 5 4 3 1 1 3 2 6 7 10 9 8 8 8 7 7 7 7 7 8 8 8 9 8 5 4 4 4 5 3 2 1 1 3 8 8 8 9 9 9 9 9 10 11 10
4 3 3 3 4 7 10 11 10 11 11 11 12 13 13 14 13 13 11 11 12 11 10 10 10 10 9 9 9 8 8 7 8 8 8 8 9 6 6 5 4 4 5 6 6 7 5 2 10 9 9 8 8 7 6 6 5 6 6 7 8 8 8 7 4 5 4 5 3 2 2 1 1 3 7 8 8 8 9 9 10 11 11 10 10
5 4 3 4 4 6 9 9 10 10 11 10 10 11 12 11 12 13 12 10 10 9 10 10 10 10 10 9 8 8 7 8 9 10 9 8 9 8 6 5 4 3 4 5 6 7 10 10 9 9 9 8 7 6 6 5 5 5 6 7 7 8 7 6 5 4 4 4 3 2 2 2 2 5 5 5 5 5 5 6 7 7 7 7 8
5 5 4 4 4 5 8 9 9 9 10 10 10 10 11 11 11 11 12 10 9 8 10 10 8 10 9 8 8 8 7 8 9 8 8 8 8 9 7 5 2 2 2 3 5 6 5 7 9 9 9 8 7 6 5 4 4 6 6 7 7 7 6 4 3 4 4 3 3 3 4 3 2 4 5 5 5 6 5 4 5 6 6 7 7
3 3 3 4 4 4 5 8 9 9 9 10 9 10 10 10 10 10 9 9 10 10 8 9 8 8 8 7 8 8 8 8 8 9 7 8 8 9 9 6 4 2 1 1 2 3 3 7 9 8 8 7 7 5 4 4 5 6 6 7 7 7 6 5 4 4 4 4 3 3 4 4 4 3 1 3 4 4 5 4 3 4 5 5 7
3 3 3 4 4 4 4 5 6 9 8 8 8 9 10 10 10 9 9 8 8 9 8 8 8 7 7 7 6 6 5 5 7 9 9 7 8 8 7 8 6 3 1 3 5 4 1 10 8 8 8 7 7 6 4 4 5 6 6 6 7 7 6 5 4 3 4 3 3 4 4 4 5 4 5 5 4 3 3 3 3 2 3 4 4
2 4 5 4 3 4 4 4 5 5 5 6 7 9 10 10 9 10 9 8 8 9 8 7 6 6 6 5 4 3 3 3 5 7 7 5 5 6 5 6 6 4 1 3 6 7 12 8 9 8 7 7 6 5 4 3 5 5 5 6 7 7 6 5 4 3 4 4 4 3 4 5 6 3 2 3 4 4 2 2 2 3 3 3 4
1 2 3 3 3 3 4 4 5 5 5 4 3 6 10 10 9 9 9 8 8 9 8 7 6 5 5 3 1 3 4 6 5 6 6 7 5 6 6 5 5 4 2 1 3 8 7 8 7 7 8 7 6 5 4 4 5 5 6 6 6 6 6 4 3 4 3 4 3 4 4 6 3 3 2 2 3 3 2 2 3 3 2 3 3
5 5 3 2 2 2 2 4 5 6 5 5 4 4 6 9 8 8 9 9 8 8 8 7 6 5 5 3 3 3 4 4 7 5 6 6 6 5 6 4 4 4 2 1 5 9 7 7 7 7 7 7 6 5 5 4 5 5 6 6 6 5 4 3 3 3 3 3 3 3 5 5 2 1 1 2 2 1 1 1 0 1 1 1 1
3 2 2 3 2 2 3 2 4 5 5 5 4 4 4 7 6 7 8 9 8 8 8 7 6 4 3 3 4 3 3 3 4 4 4 5 6 6 5 5 4 3 4 1 8 7 7 7 6 6 7 7 8 8 7 6 6 6 6 6 5 4 2 3 4 2 3 2 3 3 5 4 1 0 0 1 0 1 1 1 0 1 1 2 2
6 5 2 1 3 2 3 3 3 4 5 5 4 4 3 5 5 4 4 6 6 6 6 4 5 3 2 3 3 3 3 3 4 4 4 4 6 7 6 5 4 4 4 3 9 7 7 7 6 6 7 8 8 5 4 6 8 7 6 5 4 3 2 2 2 2 2 2 2 4 6 2 1 1 1 0 0 0 1 1 0 0 1 2 1
8 6 5 3 2 3 3 4 3 3 4 4 4 4 4 4 4 5 4 5 5 5 4 4 3 3 3 3 2 3 3 3 4 5 4 6 7 9 7 6 5 6 5 5 7 7 7 7 7 8 9 8 5 4 4 4 4 6 5 3 2 2 2 2 2 2 2 2 2 6 7 3 2 1 1 1 1 1 1 1 1 0 1 1 1
8 7 8 6 4 4 4 4 4 4 4 4 3 3 4 4 5 4 4 4 5 5 4 4 3 3 4 3 2 3 4 2 2 5 7 4 5 8 9 8 6 6 6 5 6 7 7 6 9 9 6 4 4 3 3 3 4 3 3 3 2 2 2 2 1 2 1 2 2 6 6 6 3 2 2 2 1 2 2 2 2 2 2 2 3
7 9 6 7 6 5 4 4 4 5 5 5 5 4 4 4 4 5 5 4 3 5 7 4 3 6 5 3 4 5 4 3 1 1 2 3 3 3 4 4 3 3 4 2 4 4 4 5 4 4 3 4 3 3 2 1 2 3 3 3 1 1 1 1 1 1 2 2 2 5 6 6 5 4 3 3 3 3 3 3 2 1 1 2 2
5 7 9 9 8 7 5 4 4 5 6 6 5 4 5 5 4 4 5 4 6 5 2 3 8 7 5 5 4 4 5 5 3 0 2 4 2 1 2 3 3 5 3 3 2 4 4 4 4 4 3 4 3 3 3 2 1 2 3 2 1 1 1 1 1 2 2 2 3 5 6 6 6 6 5 5 4 4 5 5 3 3 1 2 4
8 7 7 7 7 7 6 5 5 5 5 4 4 4 5 4 4 4 3 4 3 3 5 7 2 2 5 10 9 5 4 4 5 2 1 1 4 4 4 3 5 5 4 4 3 3 4 4 4 4 3 3 3 3 3 3 2 2 3 2 2 1 1 2 2 2 2 2 3 5 5 6 7 7 7 7 5 5 6 6 5 5 3 4 5
5 8 8 8 7 9 6 5 5 4 4 4 4 4 4 4 4 4 4 2 2 7 7 7 8 7 6 0 0 6 7 6 4 5 3 2 5 8 5 4 4 4 4 5 4 3 3 3 4 3 3 2 3 2 2 2 1 1 2 3 3 2 2 2 2 3 3 3 3 5 5 6 6 7 8 7 7 6 7 7 7 5 4 5 6
11 11 9 9 10 9 7 4 3 3 2 3 3 2 3 3 3 4 4 3 3 1 0 1 2 2 2 1 5 7 6 4 5 5 6 6 2 3 2 6 3 3 4 3 4 4 4 4 4 4 3 3 3 3 2 1 1 1 1 3 3 3 3 3 3 3 3 3 3 4 6 6 6 7 7 7 8 7 7 7 8 7 8 5 4
9 8 9 9 9 9 6 3 1 2 1 2 2 2 2 3 2 1 2 3 3 1 1 1 2 5 2 5 1 1 5 5 5 2 2 4 3 3 2 2 4 4 5 5 5 5 5 4 3 3 4 3 3 3 2 1 0 0 0 1 3 3 3 3 3 3 4 4 4 4 7 7 7 7 6 7 7 7 8 8 9 8 10 8 7
8 10 9 9 8 9 8 7 2 1 2 2 1 1 2 1 1 1 1 1 1 1 1 1 2 1 1 2 4 1 0 5 7 5 5 5 6 6 5 2 2 3 4 6 4 4 5 5 5 5 5 4 3 1 1 1 1 1 0 0 3 3 3 3 3 3 3 4 4 4 5 9 8 7 7 7 8 8 8 9 9 9 10 9 8
9 10 8 7 8 11 9 10 5 4 4 3 3 3 3 3 2 1 0 0 1 1 1 2 3 3 1 2 1 2 2 1 1 5 6 2 1 1 1 5 6 2 2 2 3 3 3 2 3 3 2 3 2 1 0 1 1 1 1 2 1 3 4 4 4 4 4 4 4 5 5 5 8 9 8 7 8 9 9 9 9 9 10 10 10
7 7 8 8 10 10 10 10 9 7 5 5 5 4 4 3 2 1 1 0 2 4 4 3 4 3 1 1 2 3 3 4 5 4 2 3 4 3 3 4 6 6 4 3 3 4 4 4 3 3 3 2 2 1 0 0 1 2 2 2 1 3 2 3 5 4 4 4 5 5 5 4 5 8 9 8 7 7 8 8 9 10 10 10 10
8 7 8 12 8 7 7 8 9 9 8 6 5 5 5 5 5 5 6 6 6 5 4 4 4 4 3 2 2 2 3 3 4 5 5 4 5 6 5 3 1 1 2 3 4 3 3 4 4 4 3 3 3 2 1 3 2 1 2 2 1 1 1 3 3 3 4 5 5 5 5 5 5 5 6 9 9 7 6 5 5 5 6 7 8
8 10 11 9 10 9 7 8 10 11 10 9 9 8 7 7 7 7 7 7 8 8 8 8 8 7 7 7 7 7 7 6 5 5 3 1 1 4 5 4 2 2 3 2 3 2 3 4 4 4 2 2 1 1 2 3 3 4 3 1 3 3 1 2 2 3 4 4 4 4 5 5 5 5 5 6 7 8 7 7 5 5 5 6 7
11 9 8 9 11 11 10 10 11 12 12 11 10 10 11 10 10 10 10 11 10 10 9 9 8 9 10 10 11 9 8 6 6 5 5 5 5 6 6 6 2 1 2 4 3 4 3 3 3 4 4 4 2 3 1 3 2 4 3 3 3 2 4 3 4 4 4 2 4 4 4 4 5 4 5 6 6 6 10 8 7 6 5 6 7
8 10 10 10 12 12 12 12 12 11 12 13 13 12 12 13 12 12 12 12 11 11 11 10 12 12 9 10 9 9 10 11 8 6 6 6 5 5 5 4 3 3 3 2 1 1 3 4 3 3 4 4 4 3 2 2 3 3 3 4 3 2 4 4 4 5 3 4 3 3 3 4 4 5 5 5 5 6 8 10 9 8 7 7 8
8 9 9 9 9 9 10 11 10 10 9 10 11 11 11 12 11 11 12 13 12 10 10 11 11 10 12 11 12 12 12 11 11 10 8 7 7 6 5 5 5 5 4 4 5 5 6 5 3 3 4 1 1 2 5 2 1 3 3 3 4 3 5 4 3 3 3 5 4 4 4 4 4 5 5 5 4 5 5 8 10 10 8 7 8
8 9 10 10 10 10 10 12 12 11 10 9 9 10 11 11 11 12 13 12 11 12 12 13 11 11 12 12 12 12 12 13 11 10 10 9 8 8 7 6 5 4 5 6 5 5 4 4 4 3 3 4 4 4 4 3 3 2 3 5 4 4 4 3 3 5 5 4 4 4 2 5 4 5 5 4 4 4 5 5 6 6 7 9 9
9 9 11 12 12 11 9 12 12 9 8 9 8 8 10 10 10 11 13 11 10 11 12 10 9 10 9 11 12 12 11 11 12 11 10 9 7 6 7 6 6 6 7 6 5 3 3 3 3 3 3 3 3 3 4 3 3 4 5 5 3 4 5 4 4 5 4 4 5 3 5 5 4 6 4 5 5 5 5 4 4 6 5 7 10
12 11 12 12 12 10 12 13 8 10 10 9 9 8 8 8 11 12 10 8 9 10 11 10 10 9 10 10 12 11 12 13 13 12 12 11 10 11 11 10 8 6 5 6 5 5 4 3 2 3 2 2 2 2 1 1 4 6 3 4 5 3 5 3 5 6 6 6 4 5 6 4 5 5 6 4 4 5 4 4 5 5 6 4 6
12 11 11 9 8 11 12 9 9 11 11 9 7 10 7 7 9 8 8 8 9 10 9 10 9 10 13 13 12 10 11 11 11 12 12 12 11 11 9 8 7 6 6 6 6 5 5 5 3 4 3 2 1 2 1 2 3 2 5 6 5 6 3 2 5 7 4 4 4 5 6 5 6 5 3 3 5 5 5 5 4 5 5 5 6
9 9 7 8 10 11 10 9 10 10 9 8 9 9 8 8 9 6 7 9 8 7 8 8 9 11 12 12 11 12 12 12 10 10 10 10 10 9 9 8 10 9 9 9 8 9 6 5 6 4 3 2 0 1 1 3 1 1 2 3 4 7 4 3 2 3 6 6 4 5 4 4 7 5 3 3 6 5 4 4 5 5 6 5 6
9 9 9 8 7 9 9 10 10 9 9 8 7 6 7 7 9 10 11 11 7 6 9 10 12 14 14 11 11 11 11 11 12 11 10 11 11 10 9 10 10 10 8 8 8 8 8 8 7 4 2 3 3 2 1 2 2 2 4 2 3 2 9 2 4 6 2 5 3 5 3 6 7 4 1 5 6 4 5 4 5 6 6 6 6
9 8 8 7 6 9 9 10 9 9 9 9 8 5 6 7 6 8 7 8 10 10 12 12 10 9 10 13 11 11 11 12 11 12 10 10 10 10 10 9 10 10 9 10 10 9 9 8 8 6 6 3 5 2 1 1 2 1 1 2 3 1 2 5 8 9 2 1 2 3 4 5 5 4 3 6 6 6 6 5 7 5 6 7 6
9 7 6 6 6 9 10 10 10 10 10 9 8 9 10 9 10 11 12 11 12 12 12 9 9 11 9 6 11 11 11 11 11 11 11 10 11 10 10 10 10 10 9 8 8 10 11 10 9 7 8 6 3 2 3 1 0 1 3 2 2 3 5 5 6 9 2 2 5 4 4 5 4 5 5 6 7 8 5 7 6 7 7 6 6
6 4 4 5 7 9 10 11 11 10 9 9 9 9 12 11 13 11 10 10 11 7 4 5 6 6 6 9 8 10 11 12 11 11 11 10 10 10 10 9 9 9 8 9 9 8 7 7 7 8 8 7 7 6 6 6 2 1 0 2 2 3 2 2 5 6 13 2 1 4 6 4 4 4 5 6 7 6 7 6 7 7 7 6 6
4 4 5 5 8 9 11 11 10 10 9 8 10 9 11 10 12 11 11 10 10 8 6 6 6 6 9 9 8 9 9 10 11 11 11 11 10 11 10 10 10 9 8 8 7 7 7 7 7 6 6 7 7 6 5 6 5 4 3 3 2 2 3 3 4 6 6 11 11 3 4 7 4 4 5 7 7 7 8 7 7 7 7 7 7
5 5 5 5 5 6 9 11 12 10 9 9 11 10 10 9 10 9 11 7 7 7 5 6 7 6 10 8 9 8 9 9 10 10 10 10 10 10 10 10 10 9 8 8 8 8 9 9 9 9 8 6 6 5 5 6 6 5 6 4 4 3 2 3 4 3 4 6 12 9 9 4 4 5 7 6 6 7 7 8 7 7 7 7 7
4 4 4 5 5 6 10 13 11 9 8 10 11 10 9 9 11 10 11 8 6 6 6 8 8 6 10 8 7 8 8 9 9 9 10 9 10 9 9 10 9 8 8 8 9 10 9 9 8 7 7 7 5 5 4 4 4 5 4 4 3 4 4 2 1 1 3 6 10 11 10 11 13 5 3 4 7 7 7 7 7 6 7 8 7
4 4 5 5 4 6 9 14 9 9 9 9 10 10 8 9 10 10 10 10 8 8 10 10 8 9 10 9 8 7 7 7 7 8 9 9 8 8 8 8 7 8 8 8 8 8 8 7 7 7 8 8 7 7 6 4 3 4 4 5 5 4 3 2 5 5 4 5 7 10 10 9 11 15 6 5 6 7 6 5 6 7 8 8 8
Wind_Direction
231 204 191 196 189 184 178 178 172 168 163 162 161 154 154 153 157 147 144 143 141 135 129 129 133 128 130 129 123 121 118 111 111 106 105 97 91 86 71 65 67 85 104 102 97 91 84 79 75 71 68 65 63 61 59 54 51 50 47 47 48 49 50 48 45 42 38 42 53 57 72 79 73 71 70 68 65 62 55 48 44 37 39 50 57
188 204 190 191 190 183 179 178 175 173 164 165 162 157 158 158 156 152 149 149 144 138 134 133 135 135 136 129 122 121 118 117 116 109 105 101 83 69 73 81 85 103 104 100 97 90 84 77 72 66 61 56 52 51 50 49 47 44 44 44 45 46 46 45 42 37 36 37 40 37 40 63 68 70 70 68 64 57 54 54 52 45 32 57 54
166 182 184 188 187 183 177 177 178 176 170 166 164 162 161 158 157 157 153 151 145 142 138 140 137 141 141 130 127 126 119 115 117 113 101 88 78 67 69 73 76 100 102 93 89 87 80 76 70 63 56 52 51 48 45 44 42 42 40 40 39 40 40 39 37 34 32 37 40 39 32 38 67 74 75 72 67 56 62 60 59 57 53 56 54
159 178 178 183 186 183 176 180 177 179 175 168 169 162 163 160 162 160 157 159 153 147 143 146 142 142 144 140 133 130 127 123 119 118 111 97 89 80 75 73 84 106 101 98 86 81 79 73 68 61 54 49 48 48 46 44 42 40 41 41 38 37 36 35 35 34 32 38 45 46 35 27 16 78 77 76 71 60 58 65 58 57 57 56 58
165 166 175 176 182 185 181 178 178 178 175 173 171 166 164 162 165 164 164 162 160 155 150 150 149 146 148 149 145 143 143 136 133 129 122 111 100 95 84 82 102 92 95 91 92 85 79 73 66 60 54 48 43 43 43 41 41 41 42 42 42 38 37 32 36 43 39 38 49 48 41 33 32 54 80 81 75 69 64 65 63 58 56 54 53
164 165 172 176 177 184 183 182 180 177 174 174 172 169 166 167 167 169 169 167 167 161 156 156 155 155 157 161 155 151 147 141 138 132 123 117 106 99 86 85 95 101 99 95 92 94 86 80 72 63 54 47 41 37 36 37 38 39 41 42 40 42 42 39 38 52 50 58 58 52 41 36 34 26 66 77 88 78 69 66 60 56 55 54 51
165 164 169 176 179 180 183 182 180 179 178 175 174 171 168 171 167 169 175 173 172 170 165 162 165 165 164 168 161 154 149 147 139 133 129 122 110 97 98 106 109 107 110 106 99 89 84 80 79 69 59 49 40 35 31 32 35 38 38 38 40 47 53 54 48 57 66 71 59 60 50 37 28 24 64 71 65 75 76 72 67 63 59 56 51
156 168 173 176 181 186 182 181 179 179 181 178 174 173 171 170 169 174 177 180 175 178 173 173 171 167 171 169 166 160 153 153 147 141 137 134 128 123 107 112 120 118 113 107 95 81 84 80 77 72 61 49 40 35 30 30 33 41 43 36 41 51 58 62 61 65 78 71 57 55 50 33 25 16 53 64 75 71 68 69 68 66 62 60 54
167 179 173 176 185 187 188 183 179 180 182 173 175 175 171 175 170 177 182 186 178 183 182 180 176 173 168 172 169 165 166 166 154 149 140 136 133 134 120 118 121 121 116 111 100 84 76 72 74 72 63 50 40 34 32 29 33 41 45 47 47 52 60 68 68 72 65 63 61 66 57 42 18 33 50 65 73 77 74 63 60 65 66 65 63
165 176 178 174 184 191 190 188 185 183 182 177 174 175 176 178 178 179 183 188 189 185 191 185 186 178 177 172 175 178 177 170 165 150 137 131 136 133 126 125 125 127 135 118 87 91 79 88 84 80 68 56 43 38 34 32 35 42 50 55 54 55 63 66 78 78 79 75 74 74 78 76 48 39 68 76 79 80 76 82 85 75 71 62 59
165 175 175 180 185 193 194 192 189 187 190 183 175 177 182 184 183 185 185 189 195 192 192 193 190 186 190 177 182 178 185 185 166 156 144 136 140 135 134 141 150 139 131 117 107 85 112 111 105 95 80 68 53 42 40 36 37 45 55 61 59 59 60 58 69 55 67 72 78 65 59 66 76 61 89 83 84 77 68 59 61 69 66 65 62
169 169 178 178 186 196 198 196 194 190 194 186 179 178 187 189 187 191 192 191 195 194 196 196 194 195 192 189 184 188 200 185 170 166 151 142 139 143 146 149 151 142 63 59 121 170 150 126 111 106 94 78 68 58 46 45 43 50 62 65 69 67 64 66 63 56 55 54 60 45 40 65 103 114 97 91 80 77 74 69 62 62 65 62 62
169 171 170 176 185 199 201 200 199 196 198 189 187 182 189 194 191 197 194 195 199 199 197 200 197 199 196 195 191 200 211 179 175 176 160 149 143 150 154 156 145 106 50 44 49 26 1 102 114 105 97 86 77 70 63 56 56 61 74 76 75 72 68 64 67 68 54 53 47 22 19 344 269 224 106 101 93 81 75 76 69 62 61 60 61
160 177 174 173 184 202 204 206 202 202 201 195 191 190 189 195 195 198 196 194 205 199 202 206 201 205 201 203 198 211 216 187 183 178 167 161 150 154 163 157 155 130 63 43 41 39 85 105 107 102 92 84 78 74 71 63 67 73 80 78 77 74 69 64 62 67 66 51 41 22 12 334 275 243 100 88 77 74 72 65 53 53 50 53 57
171 179 183 172 180 193 203 210 208 208 204 200 195 195 195 196 196 197 198 195 205 202 203 214 210 209 208 209 210 217 219 204 196 184 171 168 162 154 161 153 155 144 87 71 33 27 73 113 112 95 87 81 77 72 73 71 68 74 82 77 77 73 73 74 63 61 61 51 26 23 10 344 25 102 73 67 77 70 55 41 51 50 54 55 51
173 183 179 187 184 187 196 209 212 209 210 203 197 198 200 200 195 196 201 202 203 208 206 212 213 217 221 216 218 223 223 216 200 183 185 176 170 161 156 156 153 181 170 12 85 349 126 122 100 94 91 84 78 64 64 72 68 72 80 78 77 73 71 80 70 53 52 48 30 28 7 5 3 96 119 83 66 67 54 41 40 58 50 52 49
155 166 181 199 193 192 197 202 207 208 213 209 200 198 201 201 196 193 200 202 201 208 212 214 211 211 222 226 230 230 225 209 201 183 189 187 174 171 159 156 158 175 258 259 303 233 287 113 101 102 94 83 74 64 48 53 63 68 74 79 79 72 62 77 70 49 48 44 39 19 7 3 16 82 79 82 62 47 52 46 43 30 60 32 44
179 167 192 196 199 201 195 200 203 207 210 213 211 202 198 201 197 191 193 200 197 203 210 213 214 214 220 235 246 237 189 185 192 190 192 177 170 158 152 169 162 169 212 308 346 50 110 115 113 105 96 86 74 60 44 50 57 64 65 74 77 73 61 70 71 47 44 41 26 14 11 3 28 61 79 85 85 63 45 38 44 48 27 38 15
218 192 201 187 211 203 202 198 202 201 204 205 204 212 204 199 195 192 190 195 197 198 205 208 206 209 212 224 188 173 164 162 174 181 196 183 179 152 152 163 168 173 162 22 348 106 112 116 112 105 97 87 78 64 41 40 45 56 61 68 67 63 60 60 62 50 41 35 18 18 352 1 41 63 49 68 77 81 49 15 47 27 5 6 46
10 360 343 325 299 241 223 210 204 205 202 202 201 201 213 204 196 195 192 194 197 198 200 201 200 201 203 190 163 147 147 155 170 181 190 175 151 151 155 162 168 169 168 156 96 117 116 114 115 106 99 93 79 64 49 31 40 50 59 67 60 59 52 50 59 54 37 26 13 4 348 349 22 20 72 49 75 78 57 354 12 12 40 61 338
20 9 342 319 307 281 259 241 217 210 206 201 199 199 201 208 206 199 199 198 195 199 196 196 195 198 191 175 152 153 155 152 169 180 185 164 155 160 164 173 162 152 131 123 125 129 129 125 118 113 105 92 77 54 30 32 33 44 52 56 56 52 39 50 51 52 45 17 12 348 344 358 25 348 22 96 360 246 252 254 188 228 239 254 207
325 327 331 307 291 249 244 246 240 224 212 205 198 191 184 193 201 198 200 206 198 194 198 190 183 180 169 158 159 155 162 166 166 179 179 170 163 174 179 175 164 142 133 131 133 140 139 137 129 120 108 89 70 53 35 18 22 32 41 51 49 46 29 33 44 36 32 1 8 340 357 346 268 275 258 263 29 320 219 197 247 75 346 5 61
331 332 319 312 267 277 231 220 224 231 225 213 200 184 180 174 195 195 188 197 195 191 188 184 176 181 172 173 172 156 147 152 169 177 181 183 175 179 183 181 170 157 149 139 137 150 148 142 132 112 90 78 64 54 40 33 9 13 28 33 46 33 29 35 36 29 12 344 334 340 349 350 276 269 174 234 214 207 202 199 180 250 229 170 265
319 313 308 308 285 253 246 214 209 206 212 214 205 186 177 172 184 192 183 181 190 188 189 186 179 176 176 185 187 157 137 142 177 189 172 176 189 180 181 182 167 158 154 135 130 156 149 140 118 101 89 81 86 63 56 36 20 9 18 31 31 18 22 9 11 354 345 334 319 332 344 351 314 255 234 208 219 205 218 216 208 208 190 209 222
317 312 317 316 310 280 246 234 207 198 201 206 198 192 176 174 182 184 185 177 196 187 179 191 191 177 188 205 188 153 147 128 118 150 196 170 163 181 184 144 128 119 119 113 101 103 92 96 88 82 101 110 91 74 62 37 18 10 12 8 27 11 8 4 351 342 330 318 305 328 342 335 336 304 243 228 218 222 235 233 219 257 252 274 277
320 347 336 324 325 314 285 256 220 210 199 201 201 184 170 185 177 181 174 182 189 194 270 222 190 181 182 185 159 149 150 138 126 175 269 162 154 145 158 108 113 118 87 127 90 99 106 115 123 119 112 105 106 112 91 82 25 1 355 5 16 5 349 334 338 323 320 318 306 325 332 330 318 317 276 231 219 236 241 253 235 238 224 247 257
342 333 324 320 318 322 313 278 238 211 208 196 189 183 192 180 171 161 181 183 201 280 222 206 198 253 212 181 172 168 152 154 145 162 233 290 173 184 171 171 152 156 150 146 134 101 128 136 134 138 134 122 106 88 91 86 78 25 340 339 357 351 336 318 321 316 317 319 306 319 323 322 316 313 319 269 236 235 243 240 243 227 238 259 259
338 340 340 330 327 322 313 302 267 229 205 191 188 183 176 170 168 161 179 183 202 217 216 213 231 195 169 317 348 147 158 160 163 164 196 195 251 179 159 168 171 162 131 141 146 121 114 130 133 130 138 136 136 109 84 85 80 71 1 325 329 327 322 315 308 307 313 313 306 306 315 311 310 313 311 309 253 236 248 252 248 258 224 232 245
1 352 339 340 335 324 317 296 269 252 205 181 197 168 155 161 157 170 176 151 177 230 38 338 159 128 9 305 175 154 147 146 167 185 171 196 172 312 172 161 173 163 144 139 144 157 155 157 159 158 160 160 153 152 125 86 97 84 58 323 317 312 309 307 299 301 299 298 290 294 301 302 301 300 302 307 304 257 248 247 253 263 257 251 250
350 334 345 345 336 330 332 316 282 230 196 173 167 143 145 159 142 129 136 156 181 100 28 27 1 319 193 145 340 144 128 141 160 150 156 167 165 153 164 140 160 157 155 172 191 169 167 153 150 154 163 178 185 197 147 180 38 97 97 296 303 287 290 287 289 290 298 301 292 293 300 301 297 291 292 303 295 290 254 245 244 247 256 260 241
343 356 355 350 337 347 357 354 21 119 128 133 107 101 82 82 76 82 77 103 86 113 127 61 338 76 68 69 115 91 170 172 169 178 198 173 176 177 199 166 154 188 185 193 165 179 164 173 174 173 181 181 209 158 154 200 322 336 23 319 284 322 299 292 298 296 299 298 303 306 306 307 305 301 302 289 284 285 274 255 257 247 255 262 255
359 355 349 339 355 7 7 11 10 72 86 70 65 61 61 63 58 63 43 87 137 290 264 231 268 283 96 96 99 117 125 134 176 186 192 204 262 316 312 191 198 182 165 154 163 146 146 131 133 145 147 152 157 129 102 172 276 315 1 335 345 330 313 316 307 309 304 304 311 310 313 311 312 312 307 296 282 279 275 268 266 259 255 261 264
344 339 336 359 14 6 15 18 22 35 65 84 88 85 85 85 86 82 73 75 210 206 228 243 248 241 240 199 194 170 181 193 185 173 158 161 167 163 166 209 202 199 185 158 125 123 114 119 104 104 101 111 133 205 71 64 330 324 11 324 360 318 322 330 316 323 315 310 308 314 314 316 314 315 311 307 302 299 286 280 277 269 264 262 265
340 342 355 18 8 12 16 27 29 39 35 41 53 60 54 55 45 39 28 20 11 358 349 349 340 332 315 294 243 205 199 203 169 187 181 170 173 187 193 220 230 116 118 138 152 145 139 146 149 134 147 160 202 227 229 271 286 311 300 276 329 277 336 333 318 310 311 302 307 314 312 315 315 310 310 313 317 318 312 302 304 298 293 282 278
355 2 9 356 15 20 16 39 34 46 44 42 47 52 52 51 47 40 36 36 32 33 25 25 23 19 30 24 19 22 14 15 10 355 326 320 246 187 190 221 141 127 129 130 133 142 161 174 150 158 146 191 216 249 221 246 274 288 288 339 302 314 320 260 277 284 287 283 307 300 309 310 308 310 312 313 313 315 318 320 307 294 297 289 279
10 359 359 5 22 21 19 38 38 48 52 56 58 58 60 59 57 53 51 48 47 45 41 44 39 44 37 29 17 26 23 30 32 33 34 29 16 2 357 15 19 79 141 146 147 182 174 156 179 171 177 230 206 262 186 264 292 281 295 302 296 320 309 308 292 280 255 265 277 293 301 302 304 303 305 306 308 308 312 314 307 304 312 307 295
6 12 13 15 25 19 21 30 34 40 52 60 65 65 66 64 63 58 59 53 47 40 39 34 39 36 38 41 33 37 36 29 22 32 54 35 34 28 17 33 43 26 4 3 342 24 172 185 189 214 201 202 190 242 279 258 278 283 314 315 331 320 295 270 260 254 291 284 282 282 293 287 286 295 293 299 303 305 310 308 310 310 320 316 304
15 19 20 27 27 22 26 28 26 33 47 56 62 68 69 68 63 61 58 56 50 46 45 39 41 31 36 31 25 32 33 39 39 39 45 35 34 42 43 47 50 43 39 37 28 23 5 350 326 7 357 357 278 250 259 263 271 307 310 297 293 289 267 269 266 282 285 282 279 275 261 264 283 277 278 279 288 305 305 306 311 315 319 312 296
20 19 26 28 32 29 31 32 28 24 36 45 58 66 69 70 67 61 57 53 48 47 41 43 34 31 33 27 30 33 28 30 32 35 45 42 38 32 34 23 43 59 66 54 42 38 32 32 17 6 19 12 6 356 343 348 339 313 286 268 264 263 270 274 281 278 266 254 260 258 259 264 253 261 264 271 283 288 291 296 303 307 305 303 304
27 24 30 33 32 32 34 39 29 21 37 44 41 56 63 54 59 56 55 45 48 48 45 44 36 38 28 32 36 37 32 31 31 28 37 41 45 44 53 46 40 43 46 47 36 50 65 55 49 34 15 6 46 22 19 3 330 304 286 295 278 275 273 246 257 256 256 248 248 250 256 254 246 259 256 253 260 262 272 282 289 288 296 303 308
31 23 33 32 33 30 40 37 20 29 43 43 42 44 53 64 59 58 65 47 48 51 47 36 36 30 29 33 39 38 34 33 28 29 28 31 31 28 31 25 26 39 49 58 51 50 44 56 80 81 77 41 358 45 20 33 357 314 322 313 317 265 261 260 254 262 251 246 232 239 253 261 259 260 256 261 259 264 263 268 272 281 288 296 300
16 20 30 28 36 39 46 37 28 36 36 37 54 58 48 56 83 73 72 56 44 42 43 35 34 34 35 32 30 24 31 30 27 31 33 30 28 30 27 22 17 30 42 45 45 43 42 40 34 48 26 74 8 21 346 17 8 17 332 324 320 316 309 260 259 259 278 274 245 242 250 242 260 256 291 289 274 269 265 264 274 277 273 276 277
23 16 6 33 39 45 44 43 37 39 34 30 48 60 59 55 71 67 67 74 59 63 61 47 41 43 41 35 30 30 32 36 32 34 37 33 35 36 28 21 28 20 27 33 31 33 27 45 48 52 7 8 67 28 69 70 290 287 236 311 326 348 327 338 335 296 271 260 252 256 269 280 260 256 242 250 259 261 263 258 262 262 265 265 265
31 14 7 23 41 49 51 51 48 44 40 30 47 55 70 81 78 81 73 69 67 55 60 48 42 41 38 34 36 35 34 35 30 33 39 37 34 35 30 29 25 20 24 33 34 35 25 25 30 47 71 6 360 360 103 141 140 12 344 17 287 26 317 335 319 291 296 271 270 263 259 256 258 271 276 263 269 272 262 253 253 251 252 254 254
39 21 5 9 41 51 57 60 57 54 50 42 41 51 72 67 73 83 87 83 54 47 45 38 36 41 44 36 30 30 35 39 35 34 36 36 35 34 37 34 34 24 22 28 27 23 24 26 22 25 28 20 356 360 356 161 190 132 148 343 337 338 239 295 333 300 343 1 293 264 271 271 282 284 262 261 256 253 253 254 249 251 250 246 248
43 17 359 356 36 53 57 60 58 51 46 44 46 60 60 66 62 55 50 53 53 41 42 36 32 37 40 34 38 34 34 39 36 37 37 36 35 32 35 38 37 32 28 29 25 20 19 18 12 17 22 18 5 7 345 344 191 202 179 189 181 267 310 312 348 302 348 235 285 318 278 269 265 267 259 261 262 260 244 252 249 253 249 249 248
38 14 12 11 35 53 59 59 58 54 45 44 43 61 68 65 70 75 76 71 79 59 56 47 54 45 48 44 39 36 35 38 35 34 34 34 37 34 33 37 40 37 28 33 30 23 15 18 5 20 15 9 18 29 7 348 344 350 140 248 251 227 186 301 282 318 311 312 99 316 303 287 263 256 265 256 262 269 262 247 257 251 254 247 247
26 33 43 26 41 50 61 63 61 59 48 51 57 53 74 73 76 76 72 70 70 78 51 51 49 48 51 43 39 39 37 39 37 34 32 32 33 34 31 32 36 32 31 33 28 12 16 19 26 22 25 25 17 21 358 5 21 321 350 329 277 259 222 225 228 243 273 301 301 264 244 273 290 270 255 266 262 257 267 262 255 257 254 252 244
29 45 47 41 40 52 67 69 64 61 53 55 65 60 70 76 81 82 80 69 76 73 71 59 54 42 54 39 40 35 36 35 38 35 32 31 33 32 30 32 31 27 26 25 21 19 21 17 14 18 21 23 27 7 18 3 359 347 344 343 348 329 303 224 230 198 251 294 293 307 306 303 282 254 261 248 263 258 250 257 251 252 254 252 242
26 41 46 54 52 57 68 71 66 64 62 63 68 67 68 77 79 78 84 77 69 69 64 56 49 41 53 43 37 36 30 31 30 33 33 30 32 31 32 32 30 25 25 22 17 18 15 15 13 12 12 21 18 24 25 357 357 337 347 326 349 336 341 347 40 337 275 218 273 299 305 310 307 285 223 263 258 253 251 249 256 254 252 253 248
35 47 53 55 59 65 74 71 65 66 62 67 72 74 72 72 79 79 81 80 69 65 59 48 41 41 43 37 35 31 32 33 26 28 31 27 30 32 32 29 29 26 24 22 20 14 8 6 4 10 18 18 8 2 5 14 5 357 354 0 346 347 322 308 300 309 298 299 300 291 303 301 295 303 280 250 264 264 263 252 253 251 249 251 253